When you browse on this site, cookies collect data to enhance your experience and personalize the content and advertising you see.
Visit our Privacy Policy to learn more. By continuing to use the site, you agree to this use of cookies and data.
  • In Hungary
  • List of Countries
  • For 7 days
  • Water Temperature
  • Satellite Maps
  • Weather Map
  • News
  • Weather Widgets
  • user-avatar
    Login

    Hourly Weather Cervinia

    Today, 11 December, Tuesday

    Time Temperature Precipitation Wind Pressure Humidity
    00:00 -1°C° 0.2 mm 3 mps 673 mmHg 85%
    01:00 -1°C° 0.1 mm 3 mps 673 mmHg 85%
    02:00 -2°C° 0.1 mm 3 mps 672 mmHg 85%
    03:00 -2°C° 0.1 mm 3 mps 672 mmHg 85%
    04:00 -2°C° 0 mm 3 mps 672 mmHg 85%
    05:00 -4°C° 0 mm 3 mps 672 mmHg 84%
    06:00 -4°C° 0 mm 3 mps 672 mmHg 84%
    07:00 -3°C° 0 mm 2 mps 672 mmHg 82%
    08:00 -2°C° 0 mm 2 mps 672 mmHg 81%
    09:00 -2°C° 0 mm 2 mps 672 mmHg 79%
    10:00 -1°C° 0 mm 2 mps 672 mmHg 74%
    11:00 +1°C° 0 mm 2 mps 672 mmHg 69%
    12:00 +2°C° 0 mm 2 mps 672 mmHg 64%
    13:00 +1°C° 0 mm 2 mps 671 mmHg 68%
    14:00 -1°C° 0 mm 2 mps 671 mmHg 73%
    15:00 -2°C° 0 mm 2 mps 671 mmHg 77%
    16:00 -4°C° 0 mm 2 mps 671 mmHg 70%
    17:00 -5°C° 0 mm 2 mps 671 mmHg 62%
    18:00 -6°C° 0 mm 2 mps 670 mmHg 55%
    19:00 -6°C° 0 mm 2 mps 670 mmHg 50%
    20:00 -6°C° 0 mm 2 mps 671 mmHg 44%
    21:00 -6°C° 0 mm 2 mps 671 mmHg 39%
    22:00 -6°C° 0 mm 2 mps 671 mmHg 38%
    23:00 -6°C° 0 mm 2 mps 670 mmHg 38%

    Tomorrow, 12 December, Wednesday

    Time Temperature Precipitation Wind Pressure Humidity
    00:00 -6°C° 0 mm 2 mps 670 mmHg 37%
    01:00 -6°C° 0 mm 2 mps 670 mmHg 37%
    02:00 -6°C° 0 mm 2 mps 670 mmHg 38%
    03:00 -6°C° 0 mm 2 mps 670 mmHg 39%
    04:00 -6°C° 0 mm 2 mps 670 mmHg 40%
    05:00 -7°C° 0 mm 2 mps 669 mmHg 41%
    06:00 -6°C° 0 mm 1 mps 669 mmHg 41%
    07:00 -3°C° 0 mm 1 mps 670 mmHg 44%
    08:00 -2°C° 0 mm 1 mps 670 mmHg 46%
    09:00 -1°C° 0 mm 1 mps 670 mmHg 49%
    10:00 +1°C° 0 mm 1 mps 670 mmHg 50%
    11:00 +2°C° 0 mm 1 mps 670 mmHg 51%
    12:00 +3°C° 0 mm 1 mps 670 mmHg 52%
    13:00 +1°C° 0 mm 1 mps 669 mmHg 59%
    14:00 0°C° 0 mm 1 mps 669 mmHg 66%
    15:00 -1°C° 0 mm 1 mps 668 mmHg 73%
    16:00 -3°C° 0 mm 1 mps 668 mmHg 71%
    17:00 -4°C° 0 mm 1 mps 668 mmHg 68%
    18:00 -6°C° 0 mm 1 mps 668 mmHg 66%
    19:00 -6°C° 0 mm 1 mps 668 mmHg 61%
    20:00 -8°C° 0 mm 2 mps 668 mmHg 57%
    21:00 -8°C° 0 mm 2 mps 668 mmHg 53%
    22:00 -8°C° 0 mm 2 mps 667 mmHg 50%
    23:00 -8°C° 0 mm 2 mps 667 mmHg 47%

    Day after tomorrow, 13 December, Thursday

    Time Temperature Precipitation Wind Pressure Humidity
    00:00 -8°C° 0 mm 2 mps 667 mmHg 45%
    01:00 -8°C° 0 mm 2 mps 667 mmHg 44%
    02:00 -9°C° 0 mm 2 mps 666 mmHg 43%
    03:00 -9°C° 0 mm 2 mps 666 mmHg 42%
    04:00 -9°C° 0 mm 2 mps 666 mmHg 43%
    05:00 -9°C° 0 mm 2 mps 665 mmHg 43%
    06:00 -9°C° 0 mm 2 mps 665 mmHg 44%
    07:00 -8°C° 0 mm 2 mps 665 mmHg 49%
    08:00 -7°C° 0 mm 2 mps 666 mmHg 54%
    09:00 -6°C° 0 mm 2 mps 666 mmHg 60%
    10:00 -4°C° 0 mm 2 mps 666 mmHg 64%
    11:00 -3°C° 0 mm 2 mps 666 mmHg 68%
    12:00 -2°C° 0 mm 2 mps 666 mmHg 72%
    13:00 -2°C° 0 mm 2 mps 665 mmHg 76%
    14:00 -3°C° 0 mm 2 mps 665 mmHg 80%
    15:00 -2°C° 0 mm 1 mps 665 mmHg 83%
    16:00 -5°C° 0 mm 2 mps 665 mmHg 83%
    17:00 -6°C° 0 mm 2 mps 665 mmHg 83%
    18:00 -8°C° 0 mm 2 mps 665 mmHg 84%
    19:00 -8°C° 0 mm 2 mps 666 mmHg 82%
    20:00 -8°C° 0 mm 2 mps 666 mmHg 80%
    21:00 -8°C° 0 mm 2 mps 666 mmHg 78%
    22:00 -7°C° 0 mm 2 mps 666 mmHg 77%
    23:00 -7°C° 0 mm 2 mps 666 mmHg 76%

    14 December, Friday

    Time Temperature Precipitation Wind Pressure Humidity
    00:00 -7°C° 0 mm 2 mps 667 mmHg 75%
    01:00 -7°C° 0 mm 2 mps 667 mmHg 75%
    02:00 -7°C° 0 mm 2 mps 667 mmHg 75%
    03:00 -7°C° 0 mm 2 mps 667 mmHg 76%
    04:00 -7°C° 0 mm 2 mps 667 mmHg 77%
    05:00 -6°C° 0 mm 1 mps 667 mmHg 78%
    06:00 -4°C° 0 mm 1 mps 667 mmHg 80%
    07:00 -3°C° 0 mm 1 mps 668 mmHg 79%
    08:00 -2°C° 0 mm 1 mps 668 mmHg 79%
    09:00 -1°C° 0 mm 1 mps 669 mmHg 78%
    10:00 0°C° 0 mm 1 mps 669 mmHg 79%
    11:00 +2°C° 0 mm 1 mps 669 mmHg 80%
    12:00 +3°C° 0 mm 1 mps 669 mmHg 80%
    13:00 +2°C° 0 mm 1 mps 669 mmHg 83%
    14:00 +2°C° 0 mm 1 mps 669 mmHg 86%
    15:00 +1°C° 0 mm 1 mps 669 mmHg 88%
    16:00 0°C° 0 mm 1 mps 670 mmHg 89%
    17:00 -1°C° 0 mm 1 mps 670 mmHg 90%
    18:00 -2°C° 0 mm 1 mps 670 mmHg 90%
    19:00 -2°C° 0 mm 1 mps 671 mmHg 88%
    20:00 -3°C° 0 mm 1 mps 671 mmHg 86%
    21:00 -4°C° 0 mm 1 mps 671 mmHg 84%
    22:00 -4°C° 0 mm 1 mps 671 mmHg 80%
    23:00 -4°C° 0 mm 1 mps 672 mmHg 77%

    15 December, Saturday

    Time Temperature Precipitation Wind Pressure Humidity
    00:00 -6°C° 0 mm 2 mps 672 mmHg 74%
    01:00 -6°C° 0 mm 2 mps 672 mmHg 71%
    02:00 -6°C° 0 mm 2 mps 672 mmHg 68%
    03:00 -6°C° 0 mm 2 mps 672 mmHg 66%
    04:00 -6°C° 0 mm 2 mps 672 mmHg 63%
    05:00 -6°C° 0 mm 2 mps 672 mmHg 60%
    06:00 -5°C° 0 mm 2 mps 672 mmHg 58%
    07:00 -4°C° 0 mm 2 mps 673 mmHg 56%
    08:00 -2°C° 0 mm 2 mps 674 mmHg 55%
    09:00 -1°C° 0 mm 2 mps 674 mmHg 53%
    10:00 +2°C° 0 mm 2 mps 674 mmHg 56%
    11:00 +3°C° 0 mm 2 mps 674 mmHg 60%
    12:00 +4°C° 0 mm 2 mps 674 mmHg 63%
    13:00 +5°C° 0 mm 1 mps 674 mmHg 64%
    14:00 +4°C° 0 mm 1 mps 674 mmHg 65%
    15:00 +3°C° 0 mm 1 mps 674 mmHg 66%
    16:00 +1°C° 0 mm 2 mps 674 mmHg 61%
    17:00 +1°C° 0 mm 2 mps 674 mmHg 55%
    18:00 -1°C° 0 mm 2 mps 674 mmHg 50%
    19:00 -1°C° 0 mm 2 mps 674 mmHg 50%
    20:00 -1°C° 0 mm 2 mps 674 mmHg 50%
    21:00 -1°C° 0 mm 2 mps 674 mmHg 50%
    22:00 +1°C° 0 mm 2 mps 674 mmHg 52%
    23:00 +1°C° 0 mm 2 mps 674 mmHg 54%

    16 December, Sunday

    Time Temperature Precipitation Wind Pressure Humidity
    00:00 +2°C° 0 mm 2 mps 675 mmHg 56%
    01:00 +2°C° 0.1 mm 2 mps 674 mmHg 61%
    02:00 +2°C° 0.1 mm 2 mps 674 mmHg 65%
    03:00 +2°C° 0.1 mm 2 mps 674 mmHg 69%
    04:00 +3°C° 0.2 mm 2 mps 674 mmHg 73%
    05:00 +3°C° 0.2 mm 2 mps 674 mmHg 77%
    06:00 +4°C° 0.2 mm 2 mps 674 mmHg 82%
    07:00 +4°C° 0 mm 2 mps 674 mmHg 82%
    08:00 +5°C° 0 mm 2 mps 674 mmHg 82%
    09:00 +5°C° 0 mm 2 mps 674 mmHg 82%
    10:00 +6°C° 0.1 mm 2 mps 674 mmHg 83%
    11:00 +6°C° 0.1 mm 2 mps 674 mmHg 84%
    12:00 +8°C° 0.1 mm 1 mps 674 mmHg 85%
    13:00 +8°C° 0.2 mm 1 mps 673 mmHg 85%
    14:00 +7°C° 0.2 mm 1 mps 673 mmHg 85%
    15:00 +6°C° 0.2 mm 2 mps 673 mmHg 85%
    16:00 +5°C° 0.4 mm 2 mps 673 mmHg 86%
    17:00 +5°C° 0.4 mm 2 mps 673 mmHg 86%
    18:00 +5°C° 0.4 mm 2 mps 673 mmHg 87%
    19:00 +5°C° 0.7 mm 2 mps 673 mmHg 88%
    20:00 +5°C° 0.7 mm 2 mps 674 mmHg 88%
    21:00 +5°C° 0.7 mm 2 mps 674 mmHg 88%
    22:00 +5°C° 0.4 mm 2 mps 674 mmHg 88%
    23:00 +4°C° 0.4 mm 2 mps 674 mmHg 89%
    Show more